Location: Untermarchtal
(48.2403°N, 9.6117°E)
Time: 04:04:40
(UTC+02:00)

ISS - Pass Details

Date: 02 October 2020
Orbit: 418 x 420 km, 51.6° (Epoch: 20 October)

Event Time Altitude Azimuth Distance (km) Brightness Sun altitude
Rises 20:18:19 0° 292° (WNW) 2,370 1.8 -14.2°
Maximum altitude 20:23:47 77° 206° (SSW) 435 -3.7 -15.1°
Enters shadow 20:25:10 33° 124° (SE) 730 -3.1 -15.3°
